{"data":{"norad_id":48304,"epoch":"2026-05-25T03:54:59.533920Z","epoch_age_seconds":64413,"freshness":"FRESH","line1":"1 48304U 21036AE  26145.16318905 -.00000449  00000+0 -27173-5 0  9995","line2":"2 48304  53.1595 103.2226 0001132  87.6200 272.4931 15.31703800279773","mean_motion":15.317038,"eccentricity":0.0001132,"inclination_deg":53.1595,"raan_deg":103.2226,"arg_perigee_deg":87.62,"mean_anomaly_deg":272.4931,"bstar":-2.7173e-6,"rev_number":27977,"period_min":94.012954724014,"perigee_km":469.95337605322,"apogee_km":471.50395924038,"semimajor_km":6848.8656676468,"source":"CELESTRAK","updated_at":"2026-05-25T13:38:16.676978Z"}}